Weather History for KAIG - January, 2013

Change the Weather History Date:

Tuesday, January 22, 2013

  Actual Average Record
Temperature  
Mean Temperature -9 °F -  
Max Temperature -1 °F 25 °F 44 °F (1964)
Min Temperature -17 °F 6 °F -25 °F (1970)
Degree Days  
Heating Degree Days 74    
Moisture  
Dew Point -18 °F    
Average Humidity 67    
Maximum Humidity 77    
Minimum Humidity 52    
Precipitation  
Precipitation 0.00 in - - ()
Sea Level Pressure  
Sea Level Pressure 30.16 in    
Wind  
Wind Speed 9 mph (West)    
Max Wind Speed 13 mph    
Max Gust Speed 17 mph    
Visibility 10 miles    
Events      
Averages and records for this station are not official NWS values.
T = Trace of Precipitation, MM = Missing Value Source: NWS Daily Summary

Daily Weather History Graph

Daily Weather History Graph

Search for Another Location

Airport or City:

Trip Planner

Search our weather history database for the weather conditions in past years. The results will help you decide how hot, cold, wet, or windy it might be!

Date:

Astronomy

Jan. 22, 2013 Rise Set
Actual Time 7:26 AM CST 4:50 PM CST
Civil Twilight 6:54 AM CST 5:22 PM CST
Nautical Twilight 6:18 AM CST 5:58 PM CST
Astronomical Twilight 5:43 AM CST 6:33 PM CST
Moon 1:11 PM CST (1/22) 3:49 AM CST (1/22)
Length of Visible Light 10h 28m
Length of Day
9h 23m
Waxing Gibbous, 83% of the Moon is Illuminated
Jan 22
Waxing Gibbous
Jan 26
Full
Feb 3
Last Quarter
Feb 10
New
Feb 17
First Quarter

Hourly Weather History & Observations

Time (CST) Temp. Windchill Dew Point Humidity Pressure Visibility Wind Dir Wind Speed Gust Speed Precip Events Conditions
12:15 AM -14.8 °F -35.6 °F -21.1 °F 73% 30.10 in 10.0 mi WNW 11.5 mph - N/A   Clear
1:55 AM -15.2 °F -35.1 °F -21.1 °F 75% 30.11 in 10.0 mi West 10.4 mph - N/A   Clear
2:15 AM -15.3 °F -35.3 °F -21.1 °F 75% 30.12 in 10.0 mi West 10.4 mph - N/A   Clear
2:35 AM -15.5 °F -34.4 °F -21.1 °F 76% 30.12 in 10.0 mi West 9.2 mph - N/A   Clear
2:55 AM -15.7 °F -31.9 °F -21.5 °F 75% 30.13 in 10.0 mi West 6.9 mph - N/A   Clear
3:15 AM -15.7 °F -36.8 °F -21.1 °F 77% 30.13 in 10.0 mi West 11.5 mph - N/A   Clear
3:35 AM -15.7 °F -35.7 °F -21.1 °F 77% 30.14 in 10.0 mi West 10.4 mph - N/A   Clear
3:55 AM -15.7 °F -35.7 °F -21.1 °F 77% 30.14 in 10.0 mi West 10.4 mph - N/A   Clear
4:15 AM -15.7 °F -36.8 °F -21.1 °F 77% 30.14 in 10.0 mi West 11.5 mph - N/A   Clear
4:35 AM -15.9 °F -36.0 °F -21.1 °F 77% 30.14 in 10.0 mi West 10.4 mph - N/A   Clear
4:55 AM -16.1 °F -36.2 °F -21.5 °F 77% 30.14 in 10.0 mi West 10.4 mph - N/A   Clear
5:15 AM -16.1 °F -35.0 °F -21.5 °F 77% 30.14 in 10.0 mi West 9.2 mph - N/A   Clear
5:35 AM -16.2 °F -34.0 °F -22.0 °F 75% 30.14 in 10.0 mi WNW 8.1 mph - N/A   Clear
5:55 AM -16.4 °F -35.5 °F -22.0 °F 76% 30.15 in 10.0 mi WNW 9.2 mph - N/A   Clear
6:15 AM -16.6 °F -35.7 °F -22.0 °F 76% 30.15 in 10.0 mi WNW 9.2 mph - N/A   Clear
6:35 AM -16.8 °F -35.9 °F -22.2 °F 76% 30.15 in 10.0 mi West 9.2 mph - N/A   Clear
6:55 AM -16.8 °F -34.6 °F -22.2 °F 76% 30.15 in 10.0 mi West 8.1 mph - N/A   Clear
7:15 AM -17.0 °F -34.8 °F -22.5 °F 76% 30.15 in 10.0 mi West 8.1 mph - N/A   Clear
7:35 AM -17.5 °F -36.8 °F -22.9 °F 76% 30.16 in 10.0 mi West 9.2 mph - N/A   Clear
7:55 AM -16.8 °F -35.9 °F -22.2 °F 76% 30.16 in 10.0 mi West 9.2 mph - N/A   Clear
8:15 AM -16.1 °F -33.7 °F -22.0 °F 74% 30.17 in 10.0 mi WNW 8.1 mph - N/A   Clear
8:35 AM -15.5 °F -33.1 °F -21.3 °F 75% 30.17 in 10.0 mi WNW 8.1 mph - N/A   Clear
8:55 AM -14.6 °F -32.0 °F -21.1 °F 73% 30.17 in 10.0 mi WNW 8.1 mph - N/A   Clear
9:15 AM -13.5 °F -31.9 °F -20.6 °F 71% 30.18 in 10.0 mi WNW 9.2 mph - N/A   Clear
9:35 AM -12.5 °F -31.7 °F -20.0 °F 69% 30.18 in 10.0 mi West 10.4 mph - N/A   Clear
9:55 AM -11.7 °F -28.5 °F -20.0 °F 67% 30.18 in 10.0 mi WNW 8.1 mph - N/A   Clear
10:15 AM -10.7 °F -22.3 °F -19.3 °F 66% 30.19 in 10.0 mi WNW 4.6 mph - N/A   Clear
10:35 AM -9.2 °F -25.4 °F -18.6 °F 64% 30.19 in 10.0 mi NW 8.1 mph - N/A   Clear
10:55 AM -9.2 °F -29.6 °F -18.6 °F 64% 30.20 in 10.0 mi WNW 12.7 mph - N/A   Clear
11:15 AM -8.0 °F -27.1 °F -17.7 °F 63% 30.20 in 10.0 mi WNW 11.5 mph 17.3 mph N/A   Clear
11:35 AM -7.1 °F -25.9 °F -17.5 °F 61% 30.19 in 10.0 mi WNW 11.5 mph - N/A   Clear
11:55 AM -6.7 °F -23.5 °F -17.5 °F 59% 30.19 in 10.0 mi NW 9.2 mph - N/A   Clear
12:15 PM -5.1 °F -21.5 °F -16.2 °F 59% 30.18 in 10.0 mi West 9.2 mph - N/A   Clear
12:35 PM -4.5 °F -16.9 °F -16.2 °F 57% 30.17 in 10.0 mi WNW 5.8 mph - N/A   Clear
12:55 PM -3.8 °F -17.5 °F -16.1 °F 56% 30.16 in 10.0 mi West 6.9 mph - N/A   Clear
1:15 PM -3.3 °F -18.2 °F -15.7 °F 55% 30.16 in 10.0 mi West 8.1 mph - N/A   Clear
1:35 PM -2.7 °F -17.5 °F -15.7 °F 54% 30.16 in 10.0 mi WNW 8.1 mph - N/A   Clear
1:55 PM -2.2 °F -16.8 °F -15.3 °F 54% 30.16 in 10.0 mi WNW 8.1 mph - N/A   Clear
2:15 PM -1.7 °F -17.3 °F -15.0 °F 53% 30.17 in 10.0 mi West 9.2 mph - N/A   Clear
2:35 PM -1.1 °F -17.6 °F -15.0 °F 52% 30.17 in 10.0 mi West 10.4 mph - N/A   Clear
2:55 PM -1.7 °F -11.8 °F -15.2 °F 53% 30.17 in 10.0 mi West 4.6 mph - N/A   Clear
3:15 PM -1.1 °F -15.5 °F -15.0 °F 52% 30.17 in 10.0 mi West 8.1 mph - N/A   Clear
3:35 PM -1.5 °F -18.1 °F -15.0 °F 53% 30.17 in 10.0 mi West 10.4 mph - N/A   Clear
3:55 PM -1.8 °F -16.4 °F -15.0 °F 54% 30.17 in 10.0 mi West 8.1 mph - N/A   Clear
4:15 PM -2.4 °F -17.1 °F -15.2 °F 55% 30.17 in 10.0 mi West 8.1 mph - N/A   Clear
4:35 PM -3.1 °F -19.1 °F -15.3 °F 56% 30.17 in 10.0 mi WSW 9.2 mph - N/A   Clear
4:55 PM -4.0 °F -19.0 °F -15.7 °F 57% 30.17 in 10.0 mi West 8.1 mph - N/A   Clear
5:15 PM -4.4 °F -19.5 °F -15.0 °F 60% 30.18 in 10.0 mi WSW 8.1 mph - N/A   Clear
5:35 PM -4.9 °F -18.8 °F -15.0 °F 62% 30.18 in 10.0 mi West 6.9 mph - N/A   Clear
5:55 PM -4.9 °F -18.8 °F -15.0 °F 62% 30.17 in 10.0 mi WSW 6.9 mph - N/A   Clear
6:15 PM -5.3 °F -21.7 °F -14.8 °F 63% 30.17 in 10.0 mi West 9.2 mph - N/A   Clear
6:35 PM -5.1 °F -22.5 °F -14.6 °F 63% 30.17 in 10.0 mi WSW 10.4 mph - N/A   Clear
6:55 PM -5.3 °F -19.3 °F -14.1 °F 66% 30.17 in 10.0 mi WSW 6.9 mph - N/A   Clear
7:15 PM -5.8 °F -23.4 °F -14.1 °F 67% 30.17 in 10.0 mi West 10.4 mph 16.1 mph N/A   Clear
7:35 PM -5.8 °F -23.4 °F -14.1 °F 67% 30.16 in 10.0 mi West 10.4 mph - N/A   Clear
7:55 PM -6.0 °F -21.5 °F -14.6 °F 66% 30.16 in 10.0 mi West 8.1 mph - N/A   Clear
8:15 PM -6.7 °F -22.3 °F -14.8 °F 68% 30.16 in 10.0 mi West 8.1 mph - N/A   Clear
8:35 PM -7.2 °F -23.0 °F -15.0 °F 69% 30.16 in 10.0 mi West 8.1 mph - N/A   Clear
8:55 PM -7.6 °F -23.4 °F -15.0 °F 70% 30.16 in 10.0 mi West 8.1 mph - N/A   Clear
9:15 PM -7.8 °F -22.3 °F -15.2 °F 70% 30.16 in 10.0 mi West 6.9 mph - N/A   Clear
9:35 PM -8.1 °F -21.2 °F -15.3 °F 71% 30.16 in 10.0 mi West 5.8 mph - N/A   Clear
9:55 PM -8.7 °F -21.9 °F -15.7 °F 71% 30.15 in 10.0 mi West 5.8 mph - N/A   Clear
10:15 PM -9.0 °F -23.8 °F -15.9 °F 72% 30.15 in 10.0 mi West 6.9 mph - N/A   Clear
10:35 PM -9.4 °F -22.7 °F -15.9 °F 73% 30.15 in 10.0 mi West 5.8 mph - N/A   Clear
10:55 PM -9.6 °F -21.1 °F -16.1 °F 73% 30.15 in 10.0 mi WNW 4.6 mph - N/A   Clear
11:15 PM -9.6 °F -22.9 °F -15.9 °F 74% 30.15 in 10.0 mi West 5.8 mph - N/A   Clear
11:35 PM -9.9 °F -23.4 °F -16.1 °F 74% 30.15 in 10.0 mi West 5.8 mph - N/A   Clear
11:55 PM -9.9 °F -23.4 °F -16.2 °F 74% 30.15 in 10.0 mi West 5.8 mph - N/A   Clear